EHI
0 0 0 0 0 0 0 0 0 0 0 0 0 0 0 0 0 0 0 0 0 0 0 0 0 0 0 0 0 0 0 0 0 0 0 0 0 0
0 0 0 0 0 0 0 0 0 0 0 0 0 0 0 0 0 0 0 0 0 0 0 0 0 0 0 0 0 0 0 0 0 0 0 0 0 0
0 0 0 0 0 0 0 0 0 0 0 0 0 0 0 0 0 0 0 0 0 0 0 0 0 0 0 0 0 0 0 0 0 0 0 0 0 0
0 0 0 0 0 0 0 0 0 0 0 0 0 0 0 0 0 0 0 0 0 0 0 0 0 0 0 0 0 0 0 0 0 0 0 0 0 0
0 0 0 0 0 0 0 0 0 0 0 0 0 0 0 0 0 0 0 0 0 0 0 0 0 0 0 0 0 0 0 0 0 0 0 0 0 0
0 0 0 0 0 0 0 0 0 0 0 0 0 0 0 0 0 0 0 0 0 0 0 0 0 0 0 0 0 0 0 0 0 0 0 0 0 0
0 0 0 0 0 0 0 0 0 0 0 0 0 0 0 0 0 0 0 0 0 0 0 0 0 0 0 0 0 0 0 0 0 0 0 0 0 0
0 0 0 0 0 0 0 0 0 0 0 0 0 0 0 0 0 0 0 0 0 0 0 0 0 0 0 0 0 0 0 0 0 0 0 0 0 0
0 0 0 0 0 0 0 0 0 0 0 0 0 0 0 0 0 0 0 0 0 0 0 0 0 0 0 0 0 0 0 0 0 0 0 0 0 0
0 0 0 0 0 0 0 0 0 0 0 0 0 0 0 0 0 0 0 0 0 0 0 0 0 0 0 0 0 0 0 0 0 0 0 0 0 0
0 0 0 0 0 0 0 0 0 0 0 0 0 0 0 0 0 0 0 0 0 0 0 0 0 0 0 0 0 0 0 0 0 0 0 0 0 0
0 0 0 0 0 0 0 0 0 0 0 0 0 0 0 0 0 0 0 0 0 0 0 0 0 0 0 0 0 0 0 0 0 0 0 0 0 0
0 0 0 0 0 0 0 0 0 0 0 0 0 0 0 0 0 0 0 0 0 0 0 0 0 0 0 0 0 0 0 0 0 0 0 0 0 0
0 0 0 0 0 0 0 0 0 0 0 0 0 0 0 0 0 0 0 0 0 0 0 0 0 0 0 0 0 0 0 0 0 0 0 0 0 0
0 0 0 0 0 0 0 0 0 0 0 0 0 0 0 0 0 0 0 0 0 0 0 0 0 0 0 0 0 0 0 0 0 0 0 0 0 0
0 0 0 0 0 0 0 0 0 0 0 0 0 0 0 0 0 0 0 0 0 0 0 0 0 0 0 0 0 0 0 0 0 0 0 0 0 0
0 0 0 0 0 0 0 0 0 0 0 0 0 0 0 0 0 0 0 0 0 0 0 0 0 0 0 0 0 0 0 0 0 0 0 0 0 0
0 0 0 0 0 0 0 0 0 0 0 0 0 0 0 0 0 0 0 0 0 0 0 0 0 0 0 0 0 0 0 0 0 0 0 0 0 0
0 0 0 0 0 0 0 0 0 0 0 0 0 0 0 0 0 0 0 0 0 0 0 0 0 0 0 0 0 0 0 0 0 0 0 0 0 0
0 0 0 0 0 0 0 0 0 0 0 0 0 0 0 0 0 0 0 0 0 0 0 0 0 0 0 0 0 0 0 0 0 0 0 0 0 0
0 0 0 0 0 0 0 0 0 0 0 0 0 0 0 0 0 0 0 0 0 0 0 0 0 0 0 0 0 0 0 0 0 0 0 0 0 0
0 0 0 0 0 0 0 0 0 0 0 0 0 0 0 0 0 0 0 0 0 0 0 0 0 0 0 0 0 0 0 0 0 0 0 0 0 0
0 0 0 0 0 0 0 0 0 0 0 0 0 0 0 0 0 0 0 0 0 0 0 0 0 0 0 0 0 0 0 0 0 0 0 0 0 0
Wind_Speed
5 6 5 5 5 5 5 5 7 11 10 9 7 7 7 6 8 6 6 11 14 14 14 16 16 16 16 16 15 14 14 13 13 13 13 12 11 12
5 6 6 5 5 5 5 5 6 9 12 9 8 8 9 11 12 8 7 13 15 15 15 16 17 16 16 16 16 15 14 14 14 14 14 13 13 13
6 7 7 7 6 5 5 6 6 8 11 9 7 8 9 8 8 7 8 8 9 17 17 16 16 15 15 15 15 15 14 14 14 15 15 14 13 13
8 7 8 7 7 6 5 7 7 7 9 12 8 8 9 9 9 9 10 10 8 11 11 11 11 12 12 13 13 12 12 11 11 11 11 11 11 12
9 9 8 8 7 6 7 8 8 9 8 10 10 8 8 9 9 10 10 7 9 7 5 6 7 9 11 12 12 11 11 10 10 9 8 8 8 8
9 8 8 7 7 7 8 8 8 9 9 9 9 9 8 9 7 7 7 5 4 3 4 5 8 10 12 12 13 13 13 12 11 10 9 8 8 8
9 8 8 11 12 9 10 9 9 9 9 9 9 9 8 7 6 5 6 5 5 3 3 4 4 4 6 11 15 16 15 14 13 12 11 10 9 9
9 8 9 10 10 13 17 18 16 12 10 9 9 10 10 9 7 7 6 6 6 2 2 4 4 5 5 4 7 11 14 14 13 13 12 12 12 12
9 8 9 11 12 9 13 18 17 19 18 13 13 13 12 10 9 9 8 8 8 4 4 6 4 6 5 6 9 9 8 10 11 13 14 15 15 15
8 9 9 11 11 11 13 13 13 13 14 11 10 11 11 9 8 10 10 10 9 6 5 5 3 3 4 3 7 8 8 10 13 16 17 18 18 17
9 10 10 10 12 14 14 13 12 11 13 13 11 12 14 15 13 9 8 7 6 3 3 3 1 2 2 4 5 7 8 12 15 18 20 21 21 20
9 8 10 10 14 17 13 11 11 10 8 8 8 7 7 7 9 6 4 3 2 1 1 1 1 1 3 2 1 2 5 10 16 19 21 22 22 15
9 8 7 14 17 18 15 9 10 10 7 6 5 4 3 3 4 6 6 4 3 2 2 1 1 1 2 3 2 2 4 6 8 10 14 17 21 19
9 8 9 16 18 16 11 11 11 7 3 2 3 3 3 3 4 5 6 6 5 4 3 2 1 2 2 2 3 4 4 6 6 5 3 6 14 18
8 14 16 16 14 9 11 13 9 5 3 3 3 3 3 2 2 3 4 4 4 5 5 4 3 2 2 2 3 4 4 5 7 5 5 6 7 8
9 11 13 12 10 9 9 8 6 5 4 4 3 3 2 3 4 3 3 3 3 4 7 9 8 6 4 5 4 5 6 6 7 7 7 9 8 7
9 6 5 6 6 6 6 6 5 5 5 4 3 3 3 4 4 3 2 3 3 4 4 4 5 6 10 8 5 7 7 8 8 8 8 11 11 10
8 6 7 7 6 6 6 6 5 5 4 4 4 4 3 3 3 3 3 4 6 6 5 4 3 3 3 9 15 8 8 9 8 9 9 11 12 11
6 6 7 7 6 6 5 5 5 4 4 4 4 4 3 4 4 4 4 5 6 7 7 6 6 6 7 7 10 15 9 8 8 10 11 12 12 12
6 7 7 7 6 6 6 5 5 5 4 4 4 4 4 4 4 4 4 6 7 7 8 8 8 8 8 7 6 9 15 9 8 10 11 12 14 18
7 7 7 7 7 6 6 6 6 5 6 5 5 4 3 3 4 4 4 6 6 7 8 7 7 8 6 7 9 10 11 16 15 8 6 8 9 9
7 7 7 7 7 7 7 6 6 6 7 6 5 4 3 2 2 3 3 4 4 6 7 6 5 5 6 10 11 10 10 10 16 22 19 11 6 6
7 7 7 7 7 6 7 8 8 8 8 7 6 4 3 2 2 2 3 3 4 6 7 7 6 6 7 8 10 10 14 13 11 14 16 23 27 25
Wind_Direction
255 256 254 258 261 263 269 274 283 290 287 287 280 276 275 276 265 260 263 270 272 269 258 243 239 243 250 258 263 266 270 272 273 272 273 273 274 274
268 268 270 271 275 276 273 271 267 272 279 280 280 278 281 286 286 280 272 277 276 270 258 244 236 234 240 248 255 260 265 267 266 263 262 261 261 263
299 299 296 294 290 288 286 282 275 273 280 285 285 288 291 294 293 287 279 266 263 259 253 244 236 233 236 242 250 257 262 265 264 257 252 251 254 257
324 317 314 315 316 312 307 299 292 286 285 291 294 295 295 296 286 277 277 270 263 267 254 235 229 229 232 239 246 251 254 258 262 257 248 246 250 255
325 322 322 323 318 316 312 302 297 294 292 291 292 289 289 287 285 283 276 272 273 271 245 220 238 247 244 238 237 238 240 241 245 247 243 241 246 255
318 315 311 308 304 303 299 291 293 294 290 287 287 288 286 283 283 284 289 289 293 319 317 288 265 250 241 232 230 233 232 231 232 234 237 240 247 254
306 302 298 300 301 304 302 299 294 288 286 285 286 287 287 293 296 304 307 311 300 293 289 282 271 253 240 233 235 239 236 231 228 226 226 227 231 238
306 307 306 303 312 310 305 304 300 292 288 284 284 284 287 292 299 300 299 298 291 274 276 281 268 257 247 236 242 244 237 228 225 225 225 226 227 228
311 315 318 320 319 313 311 306 298 290 284 280 279 279 282 286 292 291 284 281 278 272 281 277 256 254 248 250 243 229 224 221 229 237 239 236 233 229
321 320 320 320 320 324 314 302 292 285 278 276 273 277 282 285 284 282 280 275 269 257 234 258 245 244 250 238 228 226 232 244 252 253 249 242 235 229
323 318 316 316 321 318 309 299 294 289 282 278 277 278 281 282 280 274 262 256 259 238 194 231 259 276 265 252 236 230 257 272 271 263 253 243 232 224
317 312 316 325 321 317 313 301 294 295 301 306 301 295 290 292 303 297 283 258 247 228 134 208 278 296 291 274 255 261 280 280 276 267 256 240 223 212
316 322 327 329 325 322 318 307 299 297 298 300 305 313 324 343 8 21 25 21 15 32 35 318 285 258 257 283 285 268 289 295 287 272 259 233 205 191
321 328 328 327 326 325 328 333 332 326 320 337 347 352 357 18 43 45 38 34 27 12 345 325 284 296 293 305 315 305 301 313 317 320 340 140 159 163
326 329 328 327 330 334 343 349 357 9 12 11 9 1 351 14 67 59 44 22 15 24 24 24 27 24 28 12 337 325 318 331 348 4 42 80 112 134
332 325 325 331 339 340 345 356 4 8 6 7 358 344 359 44 53 42 25 357 7 39 43 44 44 47 49 32 21 13 7 1 0 21 49 64 69 79
327 329 340 342 352 354 353 355 360 4 8 358 346 347 27 62 62 43 15 1 24 40 50 44 48 60 55 34 32 29 26 26 21 26 50 62 57 57
347 351 349 348 352 357 355 355 357 1 355 345 341 354 40 66 62 42 31 39 44 41 39 29 14 11 41 53 33 32 36 35 31 36 50 65 61 53
1 354 351 349 352 356 352 351 351 347 343 340 345 6 43 61 60 54 52 59 57 51 43 36 33 41 63 60 36 30 39 42 46 55 55 62 64 59
360 354 351 348 350 351 347 348 349 351 349 347 354 13 45 68 71 64 65 76 73 69 63 55 52 53 62 66 57 39 34 42 52 62 66 72 76 76
354 352 350 348 349 351 350 351 358 0 1 358 359 11 37 66 80 84 85 95 95 89 84 81 84 84 80 78 75 61 47 45 48 50 55 70 73 70
352 350 349 350 350 353 353 356 2 2 1 358 355 4 25 53 86 97 99 95 95 102 106 111 110 92 80 79 81 77 69 60 53 51 52 58 72 77
348 346 347 348 348 351 357 2 8 5 359 354 353 1 22 24 41 88 94 87 94 104 107 109 105 92 86 84 85 83 77 71 69 68 63 71 84 95